Tiempo cada hora Dajianchang

Hoy, 4 Diciembre, Viernes

Tiempo Temperatura Precipitaciones Viento Presión Humedad
00:00 -5°C° 0 mm 3 mps 777 mmHg 35%
01:00 -5°C° 0 mm 4 mps 776 mmHg 36%
02:00 -5°C° 0 mm 4 mps 776 mmHg 36%
03:00 -5°C° 0 mm 4 mps 776 mmHg 36%
04:00 -5°C° 0 mm 4 mps 775 mmHg 35%
05:00 -6°C° 0 mm 5 mps 775 mmHg 35%
06:00 -5°C° 0 mm 4 mps 775 mmHg 34%
07:00 -5°C° 0 mm 4 mps 775 mmHg 34%
08:00 -5°C° 0 mm 4 mps 775 mmHg 36%
09:00 -5°C° 0 mm 5 mps 775 mmHg 33%
10:00 -4°C° 0 mm 6 mps 775 mmHg 29%
11:00 -3°C° 0 mm 6 mps 775 mmHg 25%
12:00 -2°C° 0 mm 6 mps 774 mmHg 24%
13:00 -2°C° 0 mm 6 mps 774 mmHg 23%
14:00 0°C° 0 mm 5 mps 773 mmHg 22%
15:00 -1°C° 0 mm 4 mps 773 mmHg 25%
16:00 -1°C° 0 mm 3 mps 773 mmHg 28%
17:00 -2°C° 0 mm 2 mps 773 mmHg 30%
18:00 -3°C° 0 mm 2 mps 773 mmHg 32%
19:00 -3°C° 0 mm 2 mps 773 mmHg 33%
20:00 -4°C° 0 mm 2 mps 773 mmHg 35%
21:00 -4°C° 0 mm 2 mps 773 mmHg 36%
22:00 -4°C° 0 mm 2 mps 773 mmHg 36%
23:00 -4°C° 0 mm 2 mps 774 mmHg 37%

Mañana, 5 Diciembre, Sábado

Tiempo Temperatura Precipitaciones Viento Presión Humedad
00:00 -4°C° 0 mm 2 mps 773 mmHg 38%
01:00 -5°C° 0 mm 2 mps 773 mmHg 39%
02:00 -5°C° 0 mm 2 mps 773 mmHg 39%
03:00 -5°C° 0 mm 2 mps 772 mmHg 40%
04:00 -5°C° 0 mm 2 mps 772 mmHg 40%
05:00 -6°C° 0 mm 2 mps 772 mmHg 41%
06:00 -6°C° 0 mm 2 mps 772 mmHg 41%
07:00 -6°C° 0 mm 2 mps 773 mmHg 41%
08:00 -6°C° 0 mm 2 mps 773 mmHg 40%
09:00 -4°C° 0 mm 2 mps 773 mmHg 36%
10:00 -2°C° 0 mm 2 mps 773 mmHg 31%
11:00 -1°C° 0 mm 2 mps 773 mmHg 27%
12:00 +1°C° 0 mm 2 mps 772 mmHg 26%
13:00 +2°C° 0 mm 2 mps 771 mmHg 25%
14:00 +2°C° 0 mm 2 mps 771 mmHg 24%
15:00 +1°C° 0 mm 2 mps 771 mmHg 27%
16:00 +1°C° 0 mm 1 mps 771 mmHg 30%
17:00 0°C° 0 mm 1 mps 770 mmHg 33%
18:00 0°C° 0 mm 1 mps 771 mmHg 34%
19:00 -1°C° 0 mm 1 mps 771 mmHg 35%
20:00 -2°C° 0 mm 0 mps 771 mmHg 36%
21:00 -2°C° 0 mm 0 mps 771 mmHg 36%
22:00 -2°C° 0 mm 0 mps 771 mmHg 37%
23:00 -2°C° 0 mm 0 mps 771 mmHg 37%

Pasado mañana, 6 Diciembre, Domingo

Tiempo Temperatura Precipitaciones Viento Presión Humedad
00:00 -3°C° 0 mm 0 mps 771 mmHg 38%
01:00 -3°C° 0 mm 0 mps 771 mmHg 38%
02:00 -3°C° 0 mm 0 mps 770 mmHg 39%
03:00 -2°C° 0 mm 1 mps 770 mmHg 39%
04:00 -2°C° 0 mm 1 mps 770 mmHg 39%
05:00 -3°C° 0 mm 1 mps 770 mmHg 39%
06:00 -3°C° 0 mm 1 mps 770 mmHg 38%
07:00 -3°C° 0 mm 1 mps 771 mmHg 37%
08:00 -3°C° 0 mm 1 mps 771 mmHg 36%
09:00 -3°C° 0 mm 2 mps 771 mmHg 32%
10:00 -1°C° 0 mm 2 mps 771 mmHg 29%
11:00 +2°C° 0 mm 2 mps 771 mmHg 26%
12:00 +2°C° 0 mm 3 mps 771 mmHg 27%
13:00 +3°C° 0 mm 3 mps 770 mmHg 28%
14:00 +3°C° 0 mm 4 mps 770 mmHg 29%
15:00 +2°C° 0 mm 3 mps 770 mmHg 33%
16:00 +2°C° 0 mm 2 mps 770 mmHg 37%
17:00 +1°C° 0 mm 2 mps 771 mmHg 41%
18:00 -1°C° 0 mm 2 mps 771 mmHg 41%
19:00 -2°C° 0 mm 2 mps 772 mmHg 41%
20:00 -2°C° 0 mm 3 mps 772 mmHg 41%
21:00 -2°C° 0 mm 3 mps 773 mmHg 38%
22:00 -4°C° 0 mm 4 mps 773 mmHg 35%
23:00 -5°C° 0 mm 5 mps 774 mmHg 31%

7 Diciembre, Lunes

Tiempo Temperatura Precipitaciones Viento Presión Humedad
00:00 -5°C° 0 mm 5 mps 774 mmHg 32%
01:00 -6°C° 0 mm 6 mps 775 mmHg 32%
02:00 -6°C° 0 mm 6 mps 775 mmHg 32%
03:00 -8°C° 0 mm 6 mps 775 mmHg 32%
04:00 -8°C° 0 mm 6 mps 776 mmHg 33%
05:00 -9°C° 0 mm 6 mps 776 mmHg 33%
06:00 -9°C° 0 mm 6 mps 776 mmHg 33%
07:00 -9°C° 0 mm 6 mps 777 mmHg 32%
08:00 -9°C° 0 mm 6 mps 777 mmHg 32%
09:00 -8°C° 0 mm 6 mps 778 mmHg 29%
10:00 -6°C° 0 mm 6 mps 778 mmHg 27%
11:00 -5°C° 0 mm 6 mps 778 mmHg 24%
12:00 -5°C° 0 mm 6 mps 777 mmHg 23%
13:00 -4°C° 0 mm 6 mps 777 mmHg 23%
14:00 -4°C° 0 mm 6 mps 776 mmHg 22%
15:00 -5°C° 0 mm 5 mps 776 mmHg 24%
16:00 -5°C° 0 mm 4 mps 776 mmHg 26%
17:00 -6°C° 0 mm 3 mps 777 mmHg 28%
18:00 -6°C° 0 mm 3 mps 777 mmHg 28%
19:00 -6°C° 0 mm 3 mps 777 mmHg 29%
20:00 -7°C° 0 mm 3 mps 777 mmHg 29%
21:00 -7°C° 0 mm 3 mps 777 mmHg 29%
22:00 -7°C° 0 mm 3 mps 777 mmHg 29%
23:00 -7°C° 0 mm 3 mps 777 mmHg 29%

8 Diciembre, Martes

Tiempo Temperatura Precipitaciones Viento Presión Humedad
00:00 -7°C° 0 mm 3 mps 777 mmHg 30%
01:00 -8°C° 0 mm 3 mps 777 mmHg 31%
02:00 -8°C° 0 mm 3 mps 777 mmHg 33%
03:00 -7°C° 0 mm 2 mps 776 mmHg 33%
04:00 -7°C° 0 mm 2 mps 776 mmHg 34%
05:00 -8°C° 0 mm 2 mps 776 mmHg 35%
06:00 -8°C° 0 mm 2 mps 776 mmHg 35%
07:00 -8°C° 0 mm 2 mps 776 mmHg 35%
08:00 -8°C° 0 mm 2 mps 775 mmHg 35%
09:00 -6°C° 0 mm 2 mps 775 mmHg 32%
10:00 -5°C° 0 mm 2 mps 775 mmHg 28%
11:00 -4°C° 0 mm 3 mps 775 mmHg 24%
12:00 -2°C° 0 mm 2 mps 774 mmHg 23%
13:00 -2°C° 0 mm 2 mps 773 mmHg 23%
14:00 -1°C° 0 mm 2 mps 772 mmHg 23%
15:00 0°C° 0 mm 1 mps 772 mmHg 25%
16:00 -1°C° 0 mm 1 mps 771 mmHg 28%
17:00 -2°C° 0 mm 1 mps 771 mmHg 31%
18:00 -3°C° 0 mm 0 mps 771 mmHg 31%
19:00 -2°C° 0 mm 0 mps 771 mmHg 31%
20:00 -2°C° 0 mm 0 mps 771 mmHg 31%
21:00 -2°C° 0 mm 0 mps 771 mmHg 32%
22:00 -2°C° 0 mm 0 mps 771 mmHg 33%
23:00 -2°C° 0 mm 0 mps 771 mmHg 33%

9 Diciembre, Miércoles

Tiempo Temperatura Precipitaciones Viento Presión Humedad
00:00 -1°C° 0 mm 1 mps 770 mmHg 35%
01:00 -1°C° 0 mm 1 mps 770 mmHg 37%
02:00 -1°C° 0 mm 1 mps 770 mmHg 39%
03:00 -2°C° 0 mm 1 mps 769 mmHg 41%
04:00 -2°C° 0 mm 1 mps 769 mmHg 43%
05:00 -3°C° 0 mm 0 mps 769 mmHg 45%
06:00 -3°C° 0 mm 0 mps 769 mmHg 45%
07:00 -3°C° 0 mm 0 mps 769 mmHg 45%
08:00 -3°C° 0 mm 0 mps 769 mmHg 45%
09:00 -2°C° 0 mm 0 mps 769 mmHg 41%
10:00 0°C° 0 mm 0 mps 769 mmHg 37%
11:00 +2°C° 0 mm 1 mps 769 mmHg 33%
12:00 +3°C° 0 mm 1 mps 768 mmHg 33%
13:00 +4°C° 0 mm 1 mps 767 mmHg 32%
14:00 +4°C° 0 mm 1 mps 767 mmHg 32%
15:00 +3°C° 0 mm 1 mps 767 mmHg 35%
16:00 +2°C° 0 mm 1 mps 767 mmHg 38%
17:00 +1°C° 0 mm 1 mps 767 mmHg 42%
18:00 +1°C° 0 mm 1 mps 767 mmHg 43%
19:00 0°C° 0 mm 1 mps 767 mmHg 44%
20:00 0°C° 0 mm 1 mps 768 mmHg 46%
21:00 0°C° 0 mm 1 mps 768 mmHg 46%
22:00 -1°C° 0 mm 1 mps 768 mmHg 46%
23:00 -2°C° 0 mm 0 mps 768 mmHg 46%
Mostrar más

Necesitamos Su Consentimiento

Meteoprog y nuestros Proveedores de Servicios pueden almacenar y acceder a sus datos personales como cookies, identificadores de dispositivo u otras tecnologías similares de su dispositivo y procesar dichos datos para personalizar contenido y anuncios, además de ofrecer funciones de redes sociales y analizar el tráfico.

  • Almacenar y/o acceder a información en su dispositivo

    Se puede almacenar o acceder a cookies, identificadores de dispositivo u otra información de su dispositivo para los fines anteriormente indicados.

  • Anuncios y contenido personalizados, medición de anuncios y contenido, percepciones del público, y desarrollo de productos

    Los anuncios y el contenido pueden personalizarse en base a su perfil. Se pueden añadir más datos para personalizar mejor los anuncios y contenidos. Se puede medir el rendimiento de los anuncios y contenidos. Se puede obtener la percepción sobre el público que ha visto los anuncios y contenidos. Dichos datos pueden usarse para desarrollar o mejorar la experiencia del usuario, sistemas y software.

Al hacer clic en ‘Estoy De Acuerdo’ usted permitirá el uso de las cookies, identificadores de dispositivo, balizas web u otras tecnologías similares indicadas. Su configuración puede cambiarse desde el navegador de su dispositivo.

Para ciertos fines, los intereses legítimos pueden ser considerados por encima del consentimiento. Puede leer más sobre ello en nuestra Política de Privacidad y Cookies.